Zurück zum Katalog

STARLINK-11694

AktivKommunikationVLEO
NORAD 64243·PAYLOAD·🇺🇸 United States

Gestartet Jun 3, 2025 von Cape Canaveral Space Force Station

Loading…

Nächste Überflüge (nächste 24 Stunden)

TLE

AktuellSource: CelesTrak SupGP

Epoche: Sep 14, 2026, 22:46 UTC

1 64243C 25119L   26257.94909722  .00427860  00000+0  77229-3 0  2574
2 64243  42.9827 138.5742 0016458 242.8759 260.1412 16.00085540    10

Verfolge STARLINK-11694 in Echtzeit mit AllMySat

Download on the App Store